Regional Weather Roundup
Issued by NWS

Home | Current Version | Previous Version | Graphics & Text | Print | Product List | Glossary On
Versions: 1 2 3 4 5 6 7 8 9 10 11 12 13 14 15 16 17 18 19 20 21 22 23 24 25 26 27
000
ASUS45 KPSR 221910
RWRAZ

ARIZONA HOURLY REGIONAL WEATHER ROUNDUP
NATIONAL WEATHER SERVICE PHOENIX AZ
1200 PM MST WED MAR 22 2017

NOTE: FAIR INDICATES FEW OR NO CLOUDS BELOW 12,000 FEET WITH NO
SIGNIFICANT WEATHER AND/OR OBSTRUCTIONS TO VISIBILITY.

AZZ001>003-036-222000-
NORTHWEST ARIZONA

CITY           SKY/WX    TMP DP  RH WIND       PRES   REMARKS
BULLHEAD CITY  PTSUNNY   77  46  33 S13G23    29.88F
KINGMAN        PTSUNNY   67  36  31 SW15G24   29.97F
$$

AZZ004>008-015-016-018-222000-
NORTH CENTRAL ARIZONA

CITY           SKY/WX    TMP DP  RH WIND       PRES   REMARKS
GRAND CANYON   CLOUDY    58  35  42 SW17G30   30.06F
WILLIAMS       PTSUNNY   57  36  44 S16G28    30.08F
PRESCOTT       CLOUDY    63  38  39 S17G24    30.05F
FLAGSTAFF      CLOUDY    53  34  48 SW21G28   30.10F
PAYSON         MOSUNNY   66  32  28 VRB7G17   30.11F
PAGE           CLOUDY    71  32  23 VRB5      29.93F
$$

AZZ009>014-017-222000-
NORTHEAST ARIZONA

CITY           SKY/WX    TMP DP  RH WIND       PRES   REMARKS
WINSLOW        PTSUNNY   74  23  15 SW13G22   30.00F
SAINT JOHNS    PTSUNNY   72  20  14 VRB3      30.03F
SHOW LOW       PTSUNNY   64  18  16 S24G35    30.08F
$$

AZZ023-222000-
GREATER PHOENIX AREA

CITY           SKY/WX    TMP DP  RH WIND       PRES   REMARKS
PHOENIX        PTSUNNY   78  40  25 VRB3      29.92F
BUCKEYE        CLOUDY    73  48  40 CALM      29.95F
LUKE AFB       PTSUNNY   76  49  39 SW6       29.93F
DEER VALLEY    CLOUDY    75  48  38 W7        29.94F
SCOTTSDALE     MOSUNNY   79  40  24 S7        29.95F
MESA-FALCON    PTSUNNY  N/A N/A N/A S12       29.92F
MESA-GATEWAY   PTSUNNY   75  41  29 SW5       29.95F
CHANDLER       PTSUNNY   79  41  25 VRB5      29.94F
$$

AZZ027-028-222000-
SOUTHWEST MARICOPA COUNTY AND PINAL COUNTY

CITY           SKY/WX    TMP DP  RH WIND       PRES   REMARKS
CASA GRANDE    NOT AVBL
GILA BEND      PTSUNNY   77  50  38 SW10      29.93F
$$

AZZ503-504-507>509-222000-
SOUTHEAST ARIZONA

CITY           SKY/WX    TMP DP  RH WIND       PRES   REMARKS
TUCSON         MOSUNNY   82  30  15 MISG      29.98F
DAVIS-MONTHAN  PTSUNNY   80  31  16 W10       29.97F
RYAN FIELD     SUNNY     81  32  17 NW13      29.98F
NOGALES        SUNNY     81  17   9 S15G33    30.03F
SIERRA VISTA   MOSUNNY   81  10   7 SW13G22   30.05F
DOUGLAS        SUNNY     82  23  11 S9        30.03F
SAFFORD        SUNNY     82  28  14 VRB5      29.95F
$$

AZZ020-021-025-026-031-222000-
SOUTHWEST ARIZONA

CITY           SKY/WX    TMP DP  RH WIND       PRES   REMARKS
YUMA           CLOUDY    77  46  33 NW8       29.94F
$$

CAZ031-033-041-043-047-048-061-222000-
SOUTHERN CALIFORNIA

CITY           SKY/WX    TMP DP  RH WIND       PRES   REMARKS
DOWNTOWN L.A.  PTSUNNY   68  49  50 W6        30.04S
L.A. AIRPORT   PTSUNNY   63  57  81 W16       30.05S
SAN DIEGO      PTSUNNY   64  54  69 W12       30.07S
BURBANK        PTSUNNY   62  47  57 W5        30.03F
ONTARIO        PTSUNNY   64  50  60 W7        30.02F
RIVERSIDE      PTSUNNY   64  55  72 W9        30.02F
PALM SPRINGS   MOSUNNY   76  44  32 VRB5      29.95F
EL CENTRO NAS  CLOUDY    76  50  40 SW18G26   29.96F
IMPERIAL       CLOUDY    77  54  44 W14       29.93F
BLYTHE         MOSUNNY   78  46  32 SW13G18   29.92F
NEEDLES        PTSUNNY   79  45  29 SW10      29.90F
$$

NVZ020-UTZ003-222000-
SOUTHERN NEVADA-UTAH

CITY           SKY/WX    TMP DP  RH WIND       PRES   REMARKS
LAS VEGAS      CLOUDY    69  29  22 S16G23    29.88F
SALT LAKE CITY PTSUNNY   61  44  53 NW14      29.85F
$$

NMZ009-TXZ055-222000-
NEW MEXICO-WEST TEXAS

CITY           SKY/WX    TMP DP  RH WIND       PRES   REMARKS
ALBUQUERQUE    MOSUNNY   73  23  15 VRB7      30.07F
EL PASO        MOSUNNY   84  18   8 SE5       30.04F
$$


........................KEY........................
SKY/WX - SKY CONDITION/WEATHER
TMP    - TEMPERATURE IN FAHRENHEIT
DP     - DEW POINT IN FAHRENHEIT
RH     - RELATIVE HUMIDITY IN PERCENT
WIND   - DIRECTION AND SPEED IN MILES PER HOUR (MPH)
VRB    - VARIABLE WIND DIRECTION
PRES   - MEAN SEA LEVEL PRESSURE IN INCHES OF MERCURY
         F - FALLING PRESSURE   R - RISING PRESSURE
         S - STEADY PRESSURE
VSB    - VISIBILITY IN MILES
HX     - HEAT INDEX IN FAHRENHEIT
WCI    - WIND CHILL INDEX IN FAHRENHEIT
TC     - TEMPERATURE IN CELSIUS WHICH IS ALSO KNOWN AS
         TEMPERATURE IN CENTIGRADE
AFB    - AIR FORCE BASE
         LUKE AFB IS LUKE AIR FORCE BASE
         DAVIS-MONTHAN IS DAVIS-MONTHAN AIR FORCE BASE
NAS    - NAVAL AIR STATION
         EL CENTRO NAS IS EL CENTRO NAVAL AIR STATION
N/A    - NOT AVAILABLE





USA.gov is the U.S. government's official web portal to all federal, state and local government web resources and services.